sat.trackr.live / text

‹ back to catalog

SYRACUSE 4B

NORAD 57214 · 2023-093B

PAYLOAD ACTIVE UNKNOWN

§ Identity

Operator
Country
FR
Launch date
2023-07-05
Launch site
FRGUI
Launch vehicle
Mass (kg)
RCS (m²)

Purposes: comms

External: N2YO · Heavens-Above · Gunter

§ Orbital elements

Epoch: 2026-09-19T00:33:59.509152Z

Period
1,436.11 min
Inclination
0.0208°
Eccentricity
0.0000377
Mean motion
1.00270544 rev/d
Perigee alt
35,785.4 km
Apogee alt
35,788.5 km
Semi-major
42,165.1 km
B*
0.0000e+0
RAAN
170.4878°
Arg perigee
91.6515°
Mean anomaly
97.8564°
Rev number
791

§ Raw data

SYRACUSE 4B1 57214U 23093B   26262.02360543  .00000000  00000+0  00000+0 0  99952 57214   0.0208 170.4878 0000377  91.6515  97.8564  1.00270544  7919

JSON: /api/v1/satellites/57214 · /tle

For live sub-satellite position, see the globe view (requires WebGL).

§ Visibility from observer

Set your observer location to see the next 7 days of passes ≥ 10°. The values pass through the URL so the page stays shareable.

No JS? Fill the form by hand. The geolocation button needs JavaScript.